Simultaneous Nadir Overpasses (SNOs) Predictions

Prediction of SNOs between GOES-16 and NPP Satellite Orbit:

Table of predicted SNOs for the next 14.0 days since TLE Epoch: 9/23/2023
Index Date Time (GOES-16) GOES-16 Lat,Lon NPP Lat,Lon Distance(km) Time Diff (sec)
1 09/23/2023 18:23:58 -0.06, -75.22 0.19, -74.21 115.43 80
2 09/25/2023 06:43:03 0.05, -75.22 1.02, -79.47 484.63 80
3 09/26/2023 06:24:18 0.05, -75.22 -0.01, -74.94 32.60 80
4 09/28/2023 18:27:27 -0.04, -75.25 -0.13, -75.71 52.18 80
5 09/29/2023 18:11:20 -0.04, -75.26 0.86, -71.17 466.05 80
6 10/01/2023 06:33:07 0.04, -75.28 0.29, -76.44 131.92 80
7 10/02/2023 06:11:40 0.04, -75.29 -0.70, -71.90 386.51 80
8 10/03/2023 18:33:34 -0.04, -75.32 -0.47, -77.20 214.83 80
9 10/04/2023 18:17:29 -0.04, -75.33 0.59, -72.67 303.88 80
10 10/06/2023 06:39:14 0.03, -75.36 0.61, -77.93 293.33 80
